Regional Weather Roundup
Issued by NWS Midland/Odessa, TX

Home | Current Version | Previous Version | Text Only | Print | Product List | Glossary On
Versions: 1 2 3 4 5 6 7 8 9 10 11 12 13 14 15 16 17 18 19 20 21 22 23 24 25 26 27 28 29 30 31 32 33 34 35 36 37 38 39 40 41 42 43 44 45 46 47 48 49 50
000
ASUS44 KMAF 221310
RWRMAF
MIDLAND AREA WEATHER ROUNDUP
NATIONAL WEATHER SERVICE MIDLAND TX
800 AM CDT FRI SEP 22 2017

...IN SOUTHWEST TEXAS AND SOUTHEAST NEW MEXICO...

CITY           SKY/WX    TMP DP  RH WIND       PRES   REMARKS
ALPINE         CLEAR     70  58  65 SW7       30.05R
ANDREWS        FAIR      69  64  85 SE9       29.94R
ARTESIA        CLEAR     66  66 100 S5        29.92R
BIG SPRING       N/A     73  67  82 S12       29.96R
CARLSBAD       CLEAR     66  65  96 S7        29.88R
DRYDEN           N/A     74  69  85 SE17      29.91R
FORT STOCKTON  CLEAR     70  66  87 SE18G24   29.91R
GUAD PASS      CLEAR     69  54  58 W9        30.05R
HOBBS          CLEAR     68  64  88 SE9       29.94R
MARFA          CLEAR     58  56  93 NW7       30.06R
MIDLAND AIRPK  PTCLDY    72  66  81 SE12      29.94R
MIDLAND INTL   PTCLDY    72  66  81 SE14      29.93R
ODESSA         CLEAR     71  65  81 SE12      29.94R
PECOS          CLEAR     72  64  78 E12       29.86S
PRESIDIO       FAIR      76  61  58 N7        29.91S
SEMINOLE       CLEAR     67  64  89 SE7       29.95R
SNYDER         CLOUDY    72  67  82 S12       29.95R
WINK           CLEAR     72  66  81 SE12      29.88R
$$
...OTHER STATIONS IN TEXAS...

CITY           SKY/WX    TMP DP  RH WIND       PRES   REMARKS
ABILENE        CLEAR     71  69  93 S10       29.95R
AMARILLO       CLEAR     69  64  84 SE13      29.95R
AUSTIN         FOG       75  74  96 SE5       29.95S VSB 1
BROWNSVILLE    CLEAR     77  77 100 SE3       29.89R
CORPUS CHRISTI PTCLDY    75  74  96 S5        29.89R
DALLAS FTW     CLOUDY    78  72  81 S12       29.95R
DEL RIO        CLOUDY    78  73  84 E13G22    29.89R
EL PASO        PTCLDY    69  45  41 S5        29.92R
HOUSTON INT    PTCLDY    74  73  97 NE6       29.96R
LUBBOCK        CLEAR     67  63  87 S9        29.95R
SAN ANGELO     PTCLDY    75  67  76 S8        29.94R
SAN ANTONIO    MOCLDY    77  73  87 SE8       29.95S
WACO           CLOUDY    76  73  91 S12       29.97R
WICHITA FALLS  NOT AVBL
$$
...OTHER LOCATIONS IN NEW MEXICO...

CITY           SKY/WX    TMP DP  RH WIND       PRES   REMARKS
ALAMOGORDO     CLEAR     64  41  42 S8        29.94R
ALBUQUERQUE    CLOUDY    61  36  39 SE6       29.97R
CANNON AFB     PTCLDY    64  64 100 S7        29.98R
CLOVIS         MOCLDY    66  64  93 SW9       29.98R
HOLLOMAN AFB   CLEAR     67  43  42 S9        29.94
ROSWELL        CLEAR     63  60  90 S3        29.91R
RUIDOSO        CLEAR     59  37  44 S6        30.13R
SANTA FE       CLOUDY    51  38  60 NW5       30.02S
TRUTH OR CONSE CLEAR     67  40  37 S3        29.93R
TUCUMCARI      PTCLDY    67  62  84 SW12      29.90R
$$




USA.gov is the U.S. government's official web portal to all federal, state and local government web resources and services.